Location: Ash Swamp
(41.5170°N, 74.6157°W)
Time: 16:36:22
(UTC+00:00)

NOSS 3-2 (A) - Pass Details

Date: 14 July 2020
Orbit: 798 x 1410 km, 63.4° (Epoch: 31 July)

Event Time Altitude Azimuth Distance (km) Brightness Sun altitude
Exits shadow 07:43:39 16° 173° (S) 2,062 4.8 -16.9°
Maximum altitude 07:47:35 37° 114° (ESE) 1,344 4.4 -16.5°
Drops below altitude 10° 07:53:10 10° 49° (NE) 2,693 7.1 -15.8°
Sets 07:56:04 0° 42° (NE) 3,740 8.5 -15.4°
